Location: Limoges
(45.8354°N, 1.2645°E)
Time: 19:46:22
(UTC+02:00)

Courier 1B Rocket - Pass Details

Date: 02 March 2024
Orbit: 920 x 1201 km, 28.2° (Epoch: 20 April)

Event Time Altitude Azimuth Distance (km) Brightness Sun altitude
Rises 05:10:22 0° 244° (WSW) 3,608 - -25.1°
Reaches altitude 10° 05:16:01 10° 205° (SSW) 2,616 - -24.2°
Maximum altitude 05:16:51 10° 197° (SSW) 2,592 - -24.1°
Drops below altitude 10° 05:17:40 10° 189° (S) 2,607 - -23.9°
Exits shadow 05:18:14 10° 184° (S) 2,640 7.1 -23.8°
Sets 05:23:14 0° 149° (SSE) 3,542 8.1 -23.0°
